Location: Seven Kings
(51.5667°N, 0.1000°E)
Time: 13:02:00
(UTC+00:00)

Cosmos 1825 - Pass Details

Date: 29 October 2020
Orbit: 502 x 508 km, 82.5° (Epoch: 28 November)

Event Time Altitude Azimuth Distance (km) Brightness Sun altitude
Rises 17:08:32 0° 5° (N) 2,629 5.6 -5.5°
Reaches altitude 10° 17:11:47 10° 35° (NE) 1,735 4.4 -6.0°
Maximum altitude 17:13:30 13° 62° (ENE) 1,573 4.0 -6.2°
Drops below altitude 10° 17:15:12 10° 89° (E) 1,727 4.2 -6.5°
Enters shadow 17:17:11 - 110° (ESE) 2,211 4.9 -6.8°
